Weather Roundup
Issued by NWS Chicago, IL

Home | Current Version | Previous Version | Graphics & Text | Print | Product List | Glossary On
Versions: 1 2 3 4 5 6 7 8 9 10 11 12 13 14 15 16 17 18 19 20 21 22 23 24 25 26 27 28 29 30 31 32 33 34 35 36 37 38 39 40 41 42 43 44 45 46 47 48 49 50
021
NZUS59 KLOT 171609
HRRLOT

CHICAGO AREA WEATHER ROUNDUP
NATIONAL WEATHER SERVICE CHICAGO/ROMEOVILLE IL
1100 AM CDT THU AUG 17 2017

NOTE: "FAIR" INDICATES FEW OR NO CLOUDS BELOW 12,000 FEET WITH NO
SIGNIFICANT WEATHER AND/OR OBSTRUCTIONS TO VISIBILITY.

* THESE STATIONS ARE NOT UNDER NWS QUALITY CONTROL. THEY ALSO MAY NOT
  REPORT WEATHER SUCH AS PRECIPITATION OR FOG.

ILZ005-006-012>014-019>023-171700-
NORTHEAST ILLINOIS

CITY           SKY/WX    TMP DP  RH WIND       PRES   REMARKS
OHARE          PTSUNNY   75  70  84 SW9       29.76R
MIDWAY         CLOUDY    74  70  87 SW14      29.76S
AURORA         CLOUDY    76  71  85 SW15      29.78S
LANSING*       CLOUDY    74  67  78 SW14G20   29.78S
JOLIET*        CLOUDY    75  71  88 SW10G16   29.79S
WAUKEGAN       LGT RAIN  74  72  93 SW13      29.73S FOG
DUPAGE AIRPORT CLOUDY    74  71  91 SW16G23   29.76S
WHEELING       CLOUDY    74  72  93 SW10      29.77R
MORRIS*        CLOUDY    75  70  85 SW13      29.78S
LEWIS AIRPORT* CLOUDY    73  68  83 SW12G20   29.78S
NORTHERLY ISL    N/A     74  68  81 S14         N/A
$$

WIZ051-052-058>065-066-070>072-171700-
SOUTHEAST WISCONSIN

CITY           SKY/WX    TMP DP  RH WIND       PRES   REMARKS
MILWAUKEE      LGT RAIN  77  71  82 SW13      29.71F
KENOSHA*       CLOUDY    76  70  82 SW12      29.73F
RACINE*        RAIN      75  72  90 SW8       29.74S FOG
WAUKESHA       CLOUDY    73  66  78 SW10G22   29.73F
WEST BEND      PTSUNNY   75  68  78 S10G17    29.69S
$$

INZ001>003-010>013-019-020-171700-
NORTHWEST INDIANA

CITY           SKY/WX    TMP DP  RH WIND       PRES   REMARKS
GARY*          CLOUDY    77  70  78 SW15      29.78F
MICHIGAN CITY* NOT AVBL
RENSSELAER*    NOT AVBL
VALPARAISO     CLOUDY    80  71  74 SW12      29.79F HX  84
$$

LMZ740>746-171700-
SOUTHERN LAKE MICHIGAN

STATION/POSITION TIME  SKY/WX   TEMP WIND        PRES    VSBY
                                AIR  DIR/SP/G
                 (UTC)          (F)  (DEG/KT/KT) (MB)    (MI)
HARRISON CRIB    1530            74  210/ 20/ 24   N/A
BURNHAM HARBOR   NOT AVBL
CALUMET HARBOR   1542            74  210/ 11/ 17 1007.6R
BURNS HARBOR     1540            76  200/ 15/ 18 1008.5F
MICHIGAN CITY    1540            74  200/ 15/ 16   N/A
$$

ABBREVIATIONS USED IN REMARKS
   TC - TEMPERATURE IN CELSIUS
  WCI - WIND CHILL INDEX
   HX - HEAT INDEX
  VSB - VISIBILITY
$$




USA.gov is the U.S. government's official web portal to all federal, state and local government web resources and services.